Content
SEND FEEDBACK

Daily
Averages
Monthly
Summary
United States of America

CLARENCE, IOWA


Home > North America > United States > Iowa
Elevation: 808 feet     Latitude: 41 49N     Longitude: 091 04W

WEATHER
 
SELECT A DAY
Number of Records: 189,044;   Date Range: 7/1/96 - 7/26/14
 
SHARE

PRINT THIS DATA

[ ← Previous Day ]
WEATHER ALMANAC - JANUARY 31, 2013
[ Next Day → ]
[ °C ]   °F
Weather ElementAverageHighLow
Temperature7.7 °F19 °F (12:52 am)1.4 °F (10:10 pm)
Dewpoint-0.2 °F10.9 °F (12:52 am)-7.6 °F (10:10 pm)
Humidity70.4 %79 % (4:30 am)62 % (3:59 pm)
Barometer30.09 in30.39 in (11:52 pm)29.82 in (1:01 am)
Wind Speed16 mph23 mph (1:52 pm)
Wind Gust34.5 mph (10:10 pm)
Weather ElementAverage
Visibility8.4 mi
Wind DirectionWNW (298.9 °)

Weather ElementTotal
Precipitation---
Heating Degree Days54.8 (Base 65)
Averaged from 35 records on January 31, 2013
WEATHER CONDITIONS BREAKOUT
WIND DIRECTION BREAKOUT
WEATHER BY HOUR - JANUARY 31, 2013
[ °C ]   °F
Local TimeTemperatureDewpointHumidityBarometerVisibilityWind DirectionWind SpeedGust SpeedPrecipitationEventsConditions
12:52 AM19.0 °F10.9 °F71 %29.85 in9.0 miWNW (300°)15.0 mph23.0 mph0.00 inOvercast
1:01 AM17.6 °F8.6 °F68 %29.82 in10.0 miWNW (300°)13.8 mph23.0 mphOvercast
1:52 AM16.0 °F7.0 °F68 %29.88 in9.0 miWNW (290°)17.3 mph29.9 mphMostly Cloudy
2:52 AM12.9 °F5.0 °F71 %29.90 in10.0 miWNW (290°)11.5 mphClear
3:52 AM10.9 °F5.0 °F77 %29.89 in10.0 miWest (280°)10.4 mphMostly Cloudy
4:30 AM12.2 °F6.8 °F79 %29.87 in10.0 miWNW (290°)15.0 mphOvercast
4:52 AM12.0 °F5.0 °F73 %29.92 in10.0 miWest (280°)10.4 mphOvercast
5:22 AM10.4 °F3.2 °F73 %29.88 in10.0 miWNW (290°)10.4 mph0.00 inScattered Clouds
5:52 AM10.0 °F3.0 °F73 %29.93 in10.0 miWNW (300°)12.7 mph0.00 inClear
6:52 AM8.1 °F1.9 °F76 %29.96 in10.0 miWNW (290°)15.0 mphClear
7:52 AM7.0 °F1.0 °F77 %29.98 in10.0 miWNW (290°)11.5 mphClear
8:33 AM6.8 °F-0.4 °F72 %29.96 in10.0 miWNW (290°)13.8 mphMostly Cloudy
8:52 AM7.0 °F0.0 °F73 %30.01 in10.0 miWNW (290°)15.0 mph21.9 mphScattered Clouds
9:52 AM8.1 °F-0.9 °F67 %30.04 in10.0 miNW (310°)18.4 mph24.2 mphPartly Cloudy
10:52 AM8.1 °F-0.9 °F67 %30.08 in10.0 miWNW (300°)18.4 mph26.5 mphMostly Cloudy
11:52 AM8.1 °F-0.9 °F67 %30.10 in10.0 miWNW (300°)16.1 mph24.2 mphMostly Cloudy
12:52 PM8.1 °F-0.9 °F67 %30.11 in10.0 miWNW (300°)20.7 mph26.5 mphOvercast
1:36 PM6.8 °F1.4 °F79 %30.08 in1.8 miNW (320°)21.9 mph28.8 mph0.00 inSnowLight Snow
1:45 PM8.6 °F-0.4 °F67 %30.08 in4.0 miWNW (300°)15.0 mph25.3 mph0.00 inSnowLight Snow
1:52 PM8.1 °F-0.9 °F67 %30.12 in7.0 miWNW (290°)23.0 mph26.5 mph0.00 inOvercast
2:52 PM8.1 °F-2.0 °F64 %30.15 in8.0 miWNW (300°)23.0 mph31.1 mphOvercast
3:52 PM7.0 °F-2.0 °F67 %30.18 in6.0 miWNW (300°)23.0 mph31.1 mphHaze
3:59 PM8.6 °F-2.2 °F62 %30.13 in4.0 miWNW (290°)20.7 mph29.9 mphHaze
4:52 PM6.1 °F-2.9 °F67 %30.21 in6.0 miWNW (300°)23.0 mph31.1 mph0.00 inHaze
5:25 PM5.0 °F-0.4 °F78 %30.18 in1.5 miNW (310°)19.6 mph26.5 mph0.00 inSnowLight Snow
5:44 PM5.0 °F-0.4 °F78 %30.19 in3.0 miNW (310°)15.0 mph0.00 inSnowLight Snow
5:52 PM5.0 °F-0.9 °F76 %30.24 in4.0 miWNW (300°)10.4 mph20.7 mph0.00 inHaze
6:52 PM3.9 °F-4.0 °F70 %30.27 in10.0 miNW (310°)16.1 mph25.3 mph0.00 inOvercast
7:52 PM3.9 °F-4.0 °F70 %30.30 in10.0 miNW (310°)11.5 mph23.0 mphOvercast
8:52 PM3.9 °F-5.1 °F66 %30.32 in10.0 miNW (320°)16.1 mph20.7 mphOvercast
9:52 PM1.9 °F-7.1 °F66 %30.34 in10.0 miWNW (300°)12.7 mph21.9 mphMostly Cloudy
10:10 PM1.4 °F-7.6 °F66 %30.30 in10.0 miWNW (300°)17.3 mph34.5 mphScattered Clouds
10:35 PM1.4 °F-7.6 °F66 %30.30 in10.0 miWNW (300°)15.0 mph21.9 mphMostly Cloudy
10:52 PM1.9 °F-7.1 °F66 %30.36 in10.0 miNW (310°)16.1 mph23.0 mphMostly Cloudy
11:52 PM1.9 °F-6.0 °F69 %30.39 in10.0 miWNW (300°)13.8 mph19.6 mphOvercast
Hourly data recorded from KIOW, located miles away from Clarence, Iowa







STORIES FROM OUR PARTNERS